SWA2474 KFLL-KDAL

Flight info

Callsign SWA2474
Flight time N/A
Altitude 36000
Route HROCK2 SMELZ Q116 JAWJA CABLO DEFUN J2 CEW J50 AEX PNUTS MNNDO4
Aircraft B738/M-SADE2E3GIJ4RWZ/LB1D1

Departure

Time 2026-05-03 21:08
Airport Fort Lauderdale Hollywood International Airport (KFLL)

Arrival

Time N/A
Airport Dallas Love Field (KDAL)
Time Latitude Longitude Altitude Speed Heading
2026-05-03 20:16 26.07416 -80.13786 12 ft 0 kts 246°
2026-05-03 20:30 26.07419 -80.13778 12 ft 2 kts 259°
2026-05-03 20:31 26.07418 -80.13761 12 ft 2 kts 289°
2026-05-03 20:31 26.07410 -80.13747 12 ft 2 kts 316°
2026-05-03 20:31 26.07397 -80.13738 12 ft 2 kts 342°
2026-05-03 20:31 26.07383 -80.13735 12 ft 2 kts
2026-05-03 20:32 26.07369 -80.13736 12 ft 0 kts 358°
2026-05-03 20:32 26.07375 -80.13736 12 ft 3 kts
2026-05-03 20:32 26.07412 -80.13736 12 ft 3 kts 359°
2026-05-03 20:32 26.07422 -80.13736 12 ft 0 kts 359°
2026-05-03 20:37 26.07437 -80.13740 12 ft 7 kts 339°
2026-05-03 20:37 26.07468 -80.13811 12 ft 12 kts 275°
2026-05-03 20:38 26.07486 -80.13919 12 ft 15 kts 278°
2026-05-03 20:38 26.07485 -80.14049 12 ft 18 kts 269°
2026-05-03 20:38 26.07487 -80.14220 12 ft 26 kts 270°
2026-05-03 20:38 26.07486 -80.14439 12 ft 30 kts 270°
2026-05-03 20:39 26.07489 -80.14665 12 ft 29 kts 270°
2026-05-03 20:39 26.07491 -80.14892 12 ft 30 kts 272°
2026-05-03 20:39 26.07492 -80.15128 12 ft 30 kts 270°
2026-05-03 20:39 26.07492 -80.15368 12 ft 31 kts 270°
2026-05-03 20:40 26.07494 -80.15614 12 ft 32 kts 270°
2026-05-03 20:40 26.07496 -80.15853 12 ft 25 kts 270°
2026-05-03 20:40 26.07496 -80.16016 11 ft 20 kts 270°
2026-05-03 20:40 26.07496 -80.16154 11 ft 6 kts 270°
2026-05-03 20:41 26.07497 -80.16206 11 ft 7 kts 270°
2026-05-03 20:41 26.07497 -80.16213 11 ft 0 kts 270°
2026-05-03 20:42 26.07497 -80.16217 11 ft 2 kts 270°
2026-05-03 20:42 26.07498 -80.16278 11 ft 12 kts 271°
2026-05-03 20:42 26.07498 -80.16320 11 ft 0 kts 270°
2026-05-03 20:43 26.07498 -80.16322 11 ft 0 kts 270°
2026-05-03 20:43 26.07498 -80.16331 11 ft 1 kts 268°
2026-05-03 20:44 26.07498 -80.16336 11 ft 0 kts 267°
2026-05-03 20:46 26.07497 -80.16350 11 ft 1 kts 269°
2026-05-03 20:46 26.07497 -80.16352 11 ft 0 kts 269°
2026-05-03 20:46 26.07497 -80.16358 11 ft 2 kts 270°
2026-05-03 20:47 26.07497 -80.16390 11 ft 5 kts 270°
2026-05-03 20:47 26.07497 -80.16433 11 ft 1 kts 271°
2026-05-03 20:47 26.07497 -80.16453 11 ft 4 kts 271°
2026-05-03 20:47 26.07498 -80.16464 11 ft 0 kts 271°
2026-05-03 20:49 26.07498 -80.16466 11 ft 0 kts 271°
2026-05-03 20:49 26.07498 -80.16469 11 ft 1 kts 271°
2026-05-03 20:49 26.07498 -80.16489 11 ft 0 kts 272°
2026-05-03 20:50 26.07498 -80.16504 11 ft 0 kts 270°
2026-05-03 20:50 26.07498 -80.16511 11 ft 2 kts 270°
2026-05-03 20:50 26.07498 -80.16513 11 ft 0 kts 270°
2026-05-03 20:51 26.07498 -80.16515 11 ft 0 kts 270°
2026-05-03 20:51 26.07499 -80.16515 11 ft 0 kts 270°
2026-05-03 20:51 26.07499 -80.16517 11 ft 1 kts 270°
2026-05-03 20:51 26.07499 -80.16518 11 ft 1 kts 270°
2026-05-03 20:52 26.07499 -80.16519 11 ft 0 kts 271°
2026-05-03 20:52 26.07499 -80.16521 11 ft 0 kts 271°
2026-05-03 20:53 26.07499 -80.16526 11 ft 2 kts 271°
2026-05-03 20:53 26.07499 -80.16560 11 ft 5 kts 270°
2026-05-03 20:53 26.07499 -80.16579 11 ft 0 kts 270°
2026-05-03 20:58 26.07499 -80.16591 11 ft 3 kts 270°
2026-05-03 20:58 26.07500 -80.16615 11 ft 0 kts 282°
2026-05-03 20:59 26.07501 -80.16617 11 ft 0 kts 289°
2026-05-03 21:00 26.07501 -80.16618 11 ft 0 kts 297°
2026-05-03 21:00 26.07502 -80.16619 11 ft 1 kts 298°
2026-05-03 21:00 26.07508 -80.16629 11 ft 3 kts 308°
2026-05-03 21:01 26.07539 -80.16642 11 ft 6 kts 355°
2026-05-03 21:01 26.07570 -80.16643 11 ft 2 kts
2026-05-03 21:01 26.07597 -80.16643 11 ft 0 kts
2026-05-03 21:02 26.07598 -80.16643 11 ft 0 kts
2026-05-03 21:04 26.07602 -80.16643 11 ft 1 kts
2026-05-03 21:04 26.07627 -80.16642 11 ft 5 kts
2026-05-03 21:04 26.07674 -80.16637 11 ft 8 kts 21°
2026-05-03 21:05 26.07694 -80.16595 11 ft 0 kts 88°
2026-05-03 21:07 26.07694 -80.16588 11 ft 3 kts 88°
2026-05-03 21:07 26.07693 -80.16321 11 ft 77 kts 91°
2026-05-03 21:07 26.07686 -80.15406 13 ft 155 kts 90°
2026-05-03 21:07 26.07664 -80.14073 523 ft 182 kts 91°
2026-05-03 21:08 26.07611 -80.12698 1509 ft 177 kts 91°
2026-05-03 21:08 26.07515 -80.11365 2167 ft 175 kts 94°
2026-05-03 21:08 26.07353 -80.10027 2782 ft 174 kts 97°
2026-05-03 21:08 26.07310 -80.08713 3326 ft 174 kts 78°
2026-05-03 21:09 26.07722 -80.07456 3768 ft 180 kts 52°
2026-05-03 21:09 26.08759 -80.06603 4010 ft 197 kts 21°
2026-05-03 21:09 26.10216 -80.06232 4005 ft 224 kts
2026-05-03 21:09 26.11861 -80.05940 3975 ft 244 kts 12°
2026-05-03 21:10 26.13511 -80.05405 3978 ft 248 kts 17°
2026-05-03 21:10 26.15191 -80.04869 3977 ft 248 kts
2026-05-03 21:10 26.16906 -80.04951 3980 ft 245 kts 343°
2026-05-03 21:10 26.18508 -80.05603 3981 ft 244 kts 336°
2026-05-03 21:11 26.20095 -80.06325 3986 ft 247 kts 337°
2026-05-03 21:11 26.21713 -80.07232 4293 ft 266 kts 324°
2026-05-03 21:11 26.22979 -80.08698 5054 ft 265 kts 299°
2026-05-03 21:11 26.23728 -80.10564 5866 ft 264 kts 289°
2026-05-03 21:12 26.24337 -80.12454 6655 ft 264 kts 288°
2026-05-03 21:12 26.24975 -80.14389 7367 ft 268 kts 289°
2026-05-03 21:12 26.25597 -80.16327 8157 ft 269 kts 286°
2026-05-03 21:12 26.26162 -80.18321 8942 ft 271 kts 284°
2026-05-03 21:13 26.26695 -80.20309 9707 ft 273 kts 284°
2026-05-03 21:13 26.27225 -80.22320 10408 ft 279 kts 284°
2026-05-03 21:13 26.27773 -80.24406 10885 ft 292 kts 284°
2026-05-03 21:13 26.28371 -80.26667 11347 ft 307 kts 284°
2026-05-03 21:14 26.28993 -80.28991 11754 ft 323 kts 284°
2026-05-03 21:14 26.29646 -80.31438 12224 ft 336 kts 285°
2026-05-03 21:14 26.30325 -80.33981 12801 ft 342 kts 284°
2026-05-03 21:14 26.31006 -80.36531 12963 ft 342 kts 284°
2026-05-03 21:15 26.31687 -80.39087 12981 ft 342 kts 284°
2026-05-03 21:15 26.32362 -80.41628 13012 ft 347 kts 284°
2026-05-03 21:15 26.33041 -80.44204 13802 ft 348 kts 284°
2026-05-03 21:15 26.33709 -80.46746 14756 ft 346 kts 284°
2026-05-03 21:16 26.34393 -80.49339 15487 ft 350 kts 284°
2026-05-03 21:16 26.35079 -80.51932 16237 ft 352 kts 284°
2026-05-03 21:16 26.35776 -80.54559 16951 ft 355 kts 284°
2026-05-03 21:16 26.36485 -80.57248 17653 ft 358 kts 283°
2026-05-03 21:17 26.37177 -80.59897 18279 ft 362 kts 283°
2026-05-03 21:17 26.37651 -80.61718 18733 ft 363 kts 283°
2026-05-03 21:17 26.38600 -80.65358 19564 ft 367 kts 283°
2026-05-03 21:17 26.39330 -80.68088 20254 ft 369 kts 283°
2026-05-03 21:18 26.40202 -80.70801 20837 ft 376 kts 290°
2026-05-03 21:18 26.41511 -80.73370 21465 ft 383 kts 300°
2026-05-03 21:18 26.43181 -80.75713 22064 ft 388 kts 305°
2026-05-03 21:18 26.45011 -80.77966 22534 ft 395 kts 307°
2026-05-03 21:19 26.46939 -80.80235 23042 ft 399 kts 308°
2026-05-03 21:19 26.48873 -80.82492 23607 ft 401 kts 308°
2026-05-03 21:19 26.50806 -80.84759 24103 ft 404 kts 307°
2026-05-03 21:19 26.52773 -80.87085 24575 ft 408 kts 307°
2026-05-03 21:20 26.54727 -80.89414 25082 ft 411 kts 307°
2026-05-03 21:20 26.56669 -80.91743 25630 ft 412 kts 307°
2026-05-03 21:20 26.58656 -80.94136 26075 ft 416 kts 307°
2026-05-03 21:20 26.60619 -80.96505 26545 ft 418 kts 306°
2026-05-03 21:21 26.62598 -80.98898 27000 ft 421 kts 306°
2026-05-03 21:21 26.64603 -81.01326 27480 ft 423 kts 306°
2026-05-03 21:21 26.66614 -81.03767 27905 ft 426 kts 306°
2026-05-03 21:21 26.68622 -81.06205 28327 ft 429 kts 306°
2026-05-03 21:22 26.70625 -81.08635 28812 ft 429 kts 306°
2026-05-03 21:22 26.72670 -81.11121 29178 ft 433 kts 306°
2026-05-03 21:22 26.74709 -81.13600 29670 ft 432 kts 305°
2026-05-03 21:22 26.76747 -81.16080 30081 ft 434 kts 305°
2026-05-03 21:23 26.78795 -81.18572 30559 ft 433 kts 305°
2026-05-03 21:23 26.80843 -81.21066 31023 ft 433 kts 305°
2026-05-03 21:23 26.82875 -81.23542 31598 ft 430 kts 304°
2026-05-03 21:23 26.84878 -81.25984 32233 ft 424 kts 303°
2026-05-03 21:24 26.86851 -81.28390 32897 ft 417 kts 303°
2026-05-03 21:24 26.88801 -81.30768 33566 ft 412 kts 303°
2026-05-03 21:24 26.90736 -81.33141 33947 ft 412 kts 302°
2026-05-03 21:24 26.92644 -81.35484 34400 ft 411 kts 302°
2026-05-03 21:25 26.94575 -81.37856 34795 ft 410 kts 302°
2026-05-03 21:25 26.96503 -81.40221 35292 ft 407 kts 303°
2026-05-03 21:25 26.98410 -81.42561 35825 ft 404 kts 302°
2026-05-03 21:25 27.00312 -81.44894 36021 ft 404 kts 302°
2026-05-03 21:26 27.04148 -81.49529 36029 ft 410 kts 304°
2026-05-03 21:26 27.08635 -81.53610 36024 ft 423 kts 315°
2026-05-03 21:27 27.13624 -81.57183 36016 ft 429 kts 317°
2026-05-03 21:27 27.18664 -81.60689 36015 ft 422 kts 316°
2026-05-03 21:28 27.23656 -81.64215 36014 ft 426 kts 315°
2026-05-03 21:28 27.28725 -81.67857 36016 ft 428 kts 315°
2026-05-03 21:29 27.33699 -81.71433 36018 ft 423 kts 315°
2026-05-03 21:29 27.38640 -81.75011 36018 ft 425 kts 315°
2026-05-03 21:30 27.43642 -81.78642 36021 ft 424 kts 315°
2026-05-03 21:30 27.48885 -81.81924 36017 ft 439 kts 322°
2026-05-03 21:31 27.54495 -81.84693 36020 ft 442 kts 324°
2026-05-03 21:31 27.60171 -81.87365 36011 ft 438 kts 324°
2026-05-03 21:32 27.65796 -81.90051 36017 ft 438 kts 324°
2026-05-03 21:32 27.71439 -81.92781 36023 ft 442 kts 323°
2026-05-03 21:33 27.77117 -81.95556 36022 ft 442 kts 324°
2026-05-03 21:33 27.82736 -81.98289 36028 ft 436 kts 323°
2026-05-03 21:34 27.88329 -82.01030 36029 ft 438 kts 323°
2026-05-03 21:34 27.93941 -82.03788 36033 ft 440 kts 323°
2026-05-03 21:35 27.99551 -82.06543 36034 ft 439 kts 323°
2026-05-03 21:35 28.05134 -82.09296 36036 ft 439 kts 322°
2026-05-03 21:36 28.10421 -82.12532 36034 ft 422 kts 314°
2026-05-03 21:36 28.12810 -82.14308 36035 ft 406 kts 312°
2026-05-03 21:36 28.15121 -82.16127 36035 ft 407 kts 311°
2026-05-03 21:37 28.19762 -82.19912 36033 ft 416 kts 310°
2026-05-03 21:37 28.24532 -82.23789 36032 ft 423 kts 311°
2026-05-03 21:38 28.29312 -82.27610 36035 ft 421 kts 311°
2026-05-03 21:38 28.34126 -82.31456 36032 ft 419 kts 311°
2026-05-03 21:39 28.38875 -82.35254 36031 ft 418 kts 311°
2026-05-03 21:39 28.43647 -82.39088 36030 ft 420 kts 311°
2026-05-03 21:40 28.48432 -82.42934 36030 ft 420 kts 311°
2026-05-03 21:40 28.53199 -82.46763 36034 ft 419 kts 311°
2026-05-03 21:41 28.57972 -82.50619 36028 ft 422 kts 311°
2026-05-03 21:41 28.62761 -82.54469 36030 ft 421 kts 311°
2026-05-03 21:42 28.67574 -82.58356 36034 ft 422 kts 311°
2026-05-03 21:42 28.72345 -82.62204 36034 ft 421 kts 311°
2026-05-03 21:43 28.77131 -82.66083 36036 ft 420 kts 310°
2026-05-03 21:43 28.81926 -82.69961 36034 ft 421 kts 310°
2026-05-03 21:44 28.86727 -82.73862 36030 ft 425 kts 310°
2026-05-03 21:44 28.91526 -82.77749 36031 ft 422 kts 310°
2026-05-03 21:45 28.96287 -82.81606 36029 ft 418 kts 310°
2026-05-03 21:45 29.01068 -82.85500 36027 ft 421 kts 310°
2026-05-03 21:46 29.05801 -82.89344 36030 ft 418 kts 310°
2026-05-03 21:46 29.10561 -82.93236 36029 ft 420 kts 310°
2026-05-03 21:47 29.15307 -82.97116 36031 ft 421 kts 310°
2026-05-03 21:47 29.20061 -83.00992 36043 ft 418 kts 310°
2026-05-03 21:48 29.24780 -83.04858 36033 ft 419 kts 310°
2026-05-03 21:48 29.29554 -83.08777 36034 ft 421 kts 310°
2026-05-03 21:49 29.34305 -83.12669 36037 ft 417 kts 311°
2026-05-03 21:49 29.39007 -83.16525 36040 ft 418 kts 311°
2026-05-03 21:50 29.43785 -83.20464 36043 ft 423 kts 311°
2026-05-03 21:50 29.48541 -83.24374 36042 ft 419 kts 311°
2026-05-03 21:51 29.53289 -83.28284 36049 ft 422 kts 311°
2026-05-03 21:51 29.58079 -83.32243 36052 ft 424 kts 311°
2026-05-03 21:52 29.62853 -83.36173 36053 ft 421 kts 311°
2026-05-03 21:52 29.67640 -83.40144 36044 ft 424 kts 311°
2026-05-03 21:53 29.72412 -83.44086 36060 ft 421 kts 311°
2026-05-03 21:53 29.77178 -83.48035 36049 ft 420 kts 311°
2026-05-03 21:54 29.81924 -83.51977 36050 ft 421 kts 311°
2026-05-03 21:54 29.86679 -83.55928 36060 ft 423 kts 311°
2026-05-03 21:55 29.91453 -83.59889 36067 ft 421 kts 311°
2026-05-03 21:55 29.96241 -83.63882 36063 ft 425 kts 312°
2026-05-03 21:56 30.01004 -83.67834 36074 ft 420 kts 311°
2026-05-03 21:56 30.05743 -83.71793 36071 ft 421 kts 311°
2026-05-03 21:57 30.10476 -83.75754 36066 ft 421 kts 311°
2026-05-03 21:57 30.15140 -83.79805 36068 ft 415 kts 307°
2026-05-03 21:58 30.19010 -83.84544 36059 ft 400 kts 297°
2026-05-03 21:58 30.22267 -83.89695 36058 ft 396 kts 294°
2026-05-03 21:59 30.25379 -83.94926 36064 ft 395 kts 294°
2026-05-03 21:59 30.28490 -84.00209 36067 ft 397 kts 294°
2026-05-03 22:00 30.31597 -84.05477 36075 ft 395 kts 294°
2026-05-03 22:00 30.34704 -84.10738 36067 ft 399 kts 294°
2026-05-03 22:01 30.37816 -84.16021 36080 ft 395 kts 295°
2026-05-03 22:01 30.40924 -84.21303 36083 ft 400 kts 294°
2026-05-03 22:02 30.44040 -84.26592 36088 ft 397 kts 295°
2026-05-03 22:02 30.47168 -84.31922 36090 ft 398 kts 294°
2026-05-03 22:03 30.50276 -84.37219 36094 ft 398 kts 294°
2026-05-03 22:03 30.53384 -84.42512 36090 ft 400 kts 295°
2026-05-03 22:04 30.56502 -84.47832 36086 ft 399 kts 295°
2026-05-03 22:04 30.59627 -84.53185 36089 ft 399 kts 295°
2026-05-03 22:05 30.62742 -84.58524 36126 ft 399 kts 295°
2026-05-03 22:05 30.65850 -84.63850 36087 ft 397 kts 295°
2026-05-03 22:06 30.68950 -84.69177 36018 ft 399 kts 295°
2026-05-03 22:06 30.72079 -84.74568 36091 ft 403 kts 294°
2026-05-03 22:07 30.75142 -84.79945 36101 ft 395 kts 291°
2026-05-03 22:07 30.77121 -84.85758 36078 ft 382 kts 277°
2026-05-03 22:08 30.77873 -84.91782 36088 ft 376 kts 269°
2026-05-03 22:08 30.78078 -84.97806 36082 ft 374 kts 267°
2026-05-03 22:09 30.78242 -85.03891 36086 ft 375 kts 268°
2026-05-03 22:10 30.78517 -85.12932 36096 ft 376 kts 268°
2026-05-03 22:10 30.78715 -85.19025 36086 ft 374 kts 268°
2026-05-03 22:11 30.78915 -85.25090 36090 ft 376 kts 268°
2026-05-03 22:11 30.79113 -85.31152 36097 ft 376 kts 268°
2026-05-03 22:12 30.79302 -85.37220 36089 ft 376 kts 268°
2026-05-03 22:12 30.79490 -85.43291 36092 ft 377 kts 268°
2026-05-03 22:13 30.79678 -85.49421 36088 ft 377 kts 268°
2026-05-03 22:13 30.79863 -85.55499 36095 ft 377 kts 268°
2026-05-03 22:14 30.80043 -85.61588 36090 ft 377 kts 268°
2026-05-03 22:14 30.80222 -85.67670 36089 ft 379 kts 268°
2026-05-03 22:15 30.80402 -85.73763 36092 ft 378 kts 268°
2026-05-03 22:15 30.80580 -85.79923 36087 ft 379 kts 268°
2026-05-03 22:16 30.80749 -85.85999 36092 ft 378 kts 268°
2026-05-03 22:16 30.80914 -85.92122 36088 ft 381 kts 268°
2026-05-03 22:17 30.81083 -85.98293 36088 ft 382 kts 269°
2026-05-03 22:17 30.81246 -86.04397 36092 ft 380 kts 268°
2026-05-03 22:18 30.81407 -86.10574 36091 ft 380 kts 269°
2026-05-03 22:18 30.81560 -86.16676 36094 ft 381 kts 269°
2026-05-03 22:19 30.81702 -86.22824 36094 ft 381 kts 269°
2026-05-03 22:19 30.81842 -86.28957 36094 ft 381 kts 269°
2026-05-03 22:20 30.81978 -86.35133 36101 ft 382 kts 269°
2026-05-03 22:20 30.82112 -86.41312 36108 ft 382 kts 269°
2026-05-03 22:21 30.82247 -86.47478 36106 ft 381 kts 269°
2026-05-03 22:21 30.82377 -86.53627 36106 ft 382 kts 269°
2026-05-03 22:22 30.82504 -86.59801 36110 ft 382 kts 269°
2026-05-03 22:22 30.82628 -86.65950 36095 ft 383 kts 269°
2026-05-03 22:23 30.83170 -86.72134 36112 ft 384 kts 276°
2026-05-03 22:23 30.84107 -86.78236 36093 ft 386 kts 277°
2026-05-03 22:24 30.85062 -86.84383 36107 ft 386 kts 277°
2026-05-03 22:24 30.85994 -86.90562 36095 ft 386 kts 277°
2026-05-03 22:25 30.86901 -86.96699 36106 ft 386 kts 277°
2026-05-03 22:25 30.87797 -87.02857 36107 ft 386 kts 277°
2026-05-03 22:26 30.88686 -87.08997 36102 ft 386 kts 277°
2026-05-03 22:26 30.89576 -87.15152 36100 ft 384 kts 277°
2026-05-03 22:27 30.90459 -87.21290 36095 ft 385 kts 277°
2026-05-03 22:27 30.91335 -87.27412 36093 ft 385 kts 277°
2026-05-03 22:28 30.92214 -87.33546 36090 ft 386 kts 278°
2026-05-03 22:28 30.93101 -87.39736 36098 ft 387 kts 277°
2026-05-03 22:29 30.93976 -87.45903 36100 ft 386 kts 278°
2026-05-03 22:29 30.94851 -87.52075 36097 ft 388 kts 277°
2026-05-03 22:30 30.95729 -87.58276 36112 ft 387 kts 278°
2026-05-03 22:30 30.96595 -87.64439 36090 ft 388 kts 278°
2026-05-03 22:31 30.97463 -87.70650 36105 ft 388 kts 277°
2026-05-03 22:31 30.98327 -87.76849 36104 ft 389 kts 277°
2026-05-03 22:32 30.99191 -87.83079 36096 ft 388 kts 278°
2026-05-03 22:32 31.00042 -87.89259 36091 ft 388 kts 278°
2026-05-03 22:33 31.00904 -87.95494 36098 ft 388 kts 278°
2026-05-03 22:33 31.01759 -88.01713 36097 ft 389 kts 278°
2026-05-03 22:34 31.02613 -88.07945 36092 ft 388 kts 278°
2026-05-03 22:34 31.03464 -88.14148 36100 ft 389 kts 278°
2026-05-03 22:35 31.04311 -88.20384 36094 ft 388 kts 279°
2026-05-03 22:35 31.05148 -88.26569 36099 ft 389 kts 278°
2026-05-03 22:36 31.05992 -88.32830 36104 ft 388 kts 278°
2026-05-03 22:36 31.06833 -88.39078 36097 ft 389 kts 279°
2026-05-03 22:37 31.07668 -88.45307 36103 ft 389 kts 279°
2026-05-03 22:37 31.08494 -88.51505 36098 ft 390 kts 279°
2026-05-03 22:38 31.09328 -88.57767 36111 ft 391 kts 279°
2026-05-03 22:38 31.10161 -88.64069 36102 ft 391 kts 279°
2026-05-03 22:39 31.10984 -88.70311 36105 ft 391 kts 279°
2026-05-03 22:39 31.11913 -88.77361 36112 ft 391 kts 279°
2026-05-03 22:40 31.12737 -88.83659 36110 ft 394 kts 279°
2026-05-03 22:40 31.13561 -88.89957 36112 ft 391 kts 279°
2026-05-03 22:41 31.14373 -88.96224 36113 ft 393 kts 279°
2026-05-03 22:41 31.15191 -89.02542 36116 ft 393 kts 279°
2026-05-03 22:42 31.15996 -89.08804 36118 ft 391 kts 279°
2026-05-03 22:42 31.16798 -89.15082 36119 ft 390 kts 280°
2026-05-03 22:43 31.17604 -89.21392 36122 ft 390 kts 280°
2026-05-03 22:43 31.18405 -89.27675 36119 ft 391 kts 280°
2026-05-03 22:44 31.19195 -89.33922 36122 ft 392 kts 280°
2026-05-03 22:44 31.19991 -89.40236 36118 ft 391 kts 280°
2026-05-03 22:45 31.20785 -89.46513 36120 ft 393 kts 280°
2026-05-03 22:45 31.21573 -89.52813 36116 ft 390 kts 280°
2026-05-03 22:46 31.22364 -89.59106 36117 ft 391 kts 281°
2026-05-03 22:46 31.23148 -89.65400 36126 ft 393 kts 280°
2026-05-03 22:47 31.23922 -89.71707 36116 ft 391 kts 280°
2026-05-03 22:47 31.24701 -89.78031 36121 ft 391 kts 281°
2026-05-03 22:48 31.25476 -89.84318 36114 ft 393 kts 280°
2026-05-03 22:48 31.26245 -89.90620 36119 ft 392 kts 280°
2026-05-03 22:49 31.27010 -89.96930 36119 ft 392 kts 280°
2026-05-03 22:49 31.27772 -90.03236 36126 ft 393 kts 280°
2026-05-03 22:50 31.28533 -90.09541 36121 ft 390 kts 281°
2026-05-03 22:50 31.29285 -90.15799 36121 ft 390 kts 281°
2026-05-03 22:51 31.30045 -90.22111 36122 ft 391 kts 281°
2026-05-03 22:51 31.30567 -90.28438 36115 ft 392 kts 275°
2026-05-03 22:52 31.30501 -90.34815 36120 ft 394 kts 272°
2026-05-03 22:52 31.30341 -90.41187 36120 ft 392 kts 273°
2026-05-03 22:53 31.30208 -90.47536 36122 ft 392 kts 273°
2026-05-03 22:53 31.30099 -90.53914 36123 ft 391 kts 273°
2026-05-03 22:54 31.30000 -90.60300 36122 ft 392 kts 273°
2026-05-03 22:54 31.29901 -90.66656 36118 ft 391 kts 273°
2026-05-03 22:55 31.29796 -90.72975 36124 ft 392 kts 273°
2026-05-03 22:55 31.29694 -90.79389 36106 ft 393 kts 273°
2026-05-03 22:56 31.29586 -90.85712 36114 ft 391 kts 273°
2026-05-03 22:56 31.29473 -90.92092 36111 ft 389 kts 273°
2026-05-03 22:57 31.29357 -90.98373 36113 ft 389 kts 273°
2026-05-03 22:57 31.29241 -91.04697 36115 ft 390 kts 273°
2026-05-03 22:58 31.29120 -91.11024 36115 ft 388 kts 273°
2026-05-03 22:58 31.28999 -91.17338 36112 ft 388 kts 274°
2026-05-03 22:59 31.28877 -91.23668 36109 ft 389 kts 274°
2026-05-03 22:59 31.28748 -91.29942 36113 ft 387 kts 274°
2026-05-03 23:00 31.28617 -91.36256 36109 ft 390 kts 274°
2026-05-03 23:00 31.28479 -91.42557 36102 ft 387 kts 274°
2026-05-03 23:01 31.28342 -91.48798 36105 ft 386 kts 274°
2026-05-03 23:01 31.28203 -91.55074 36106 ft 385 kts 274°
2026-05-03 23:02 31.28058 -91.61345 36094 ft 386 kts 274°
2026-05-03 23:02 31.27914 -91.67578 36108 ft 386 kts 273°
2026-05-03 23:03 31.27764 -91.73851 36098 ft 385 kts 273°
2026-05-03 23:03 31.27610 -91.80062 36102 ft 383 kts 274°
2026-05-03 23:04 31.27457 -91.86313 36168 ft 384 kts 274°
2026-05-03 23:04 31.27298 -91.92463 36137 ft 378 kts 274°
2026-05-03 23:05 31.27142 -91.98667 36110 ft 383 kts 274°
2026-05-03 23:05 31.26978 -92.04832 36112 ft 379 kts 274°
2026-05-03 23:06 31.26817 -92.11026 36109 ft 380 kts 274°
2026-05-03 23:06 31.26650 -92.17170 36105 ft 381 kts 274°
2026-05-03 23:07 31.26475 -92.23364 36103 ft 377 kts 274°
2026-05-03 23:07 31.26302 -92.29432 36108 ft 376 kts 274°
2026-05-03 23:08 31.26129 -92.35565 36107 ft 376 kts 274°
2026-05-03 23:08 31.25952 -92.41656 36104 ft 376 kts 274°
2026-05-03 23:09 31.25769 -92.47765 36111 ft 375 kts 275°
2026-05-03 23:09 31.25725 -92.53873 36060 ft 374 kts 280°
2026-05-03 23:09 31.26100 -92.56863 35948 ft 366 kts 288°
2026-05-03 23:10 31.27006 -92.59582 35972 ft 363 kts 301°
2026-05-03 23:10 31.28574 -92.61884 35800 ft 366 kts 317°
2026-05-03 23:10 31.30816 -92.63343 35805 ft 377 kts 336°
2026-05-03 23:10 31.33520 -92.63601 35640 ft 407 kts 359°
2026-05-03 23:11 31.36263 -92.62324 35508 ft 443 kts 25°
2026-05-03 23:11 31.38366 -92.59565 35361 ft 482 kts 54°
2026-05-03 23:11 31.39234 -92.55672 35308 ft 515 kts 83°
2026-05-03 23:11 31.38480 -92.51546 35103 ft 531 kts 116°
2026-05-03 23:12 31.36145 -92.48277 34865 ft 525 kts 149°
2026-05-03 23:12 31.32818 -92.46802 34624 ft 497 kts 185°